Lapse_Rate
4.4 4.3 4.3 4.4 4.4 4.4 4.5 4.3 4.2 4.1 4.1 4.2 4.5 5.1 5.8 7.4 7.7 6.2 5.7 6.0 6.5 6.0 6.2 6.4 6.5 6.5 6.3 6.1 6.0 5.8 5.9 5.9 6.0
4.1 4.1 4.1 4.1 4.1 4.1 4.2 4.2 4.0 3.8 3.7 3.8 4.2 4.7 5.4 7.1 6.6 5.2 5.4 5.7 6.0 5.9 6.2 6.6 6.7 7.2 6.3 6.1 5.8 5.7 5.8 5.8 6.0
4.0 4.0 3.9 4.0 4.0 3.9 3.9 3.8 3.8 3.7 3.5 3.9 4.1 4.6 6.0 7.4 7.1 5.4 5.2 5.8 5.9 6.0 6.3 6.5 7.9 6.3 6.4 6.3 6.1 6.0 5.9 5.9 6.3
4.2 3.9 3.9 3.7 3.7 3.7 3.7 3.7 3.9 3.8 3.9 4.1 4.4 5.7 6.6 7.2 5.9 6.6 6.0 7.1 7.0 7.6 8.8 8.9 8.0 7.5 7.2 7.9 7.7 7.3 6.6 6.2 6.0
3.6 3.3 3.5 3.5 3.4 3.4 3.6 3.6 3.8 4.0 4.1 4.4 5.3 6.7 8.2 7.2 6.5 6.4 7.0 8.4 8.6 9.1 9.5 9.2 9.1 8.6 8.3 8.0 8.3 8.9 7.7 7.6 6.1
2.4 2.6 2.8 3.1 3.3 3.4 3.6 3.7 4.1 4.4 5.7 6.2 6.8 7.1 8.4 6.2 6.2 5.6 8.4 9.2 9.1 9.5 9.2 8.0 7.9 7.7 7.6 7.7 8.0 8.6 8.3 7.8 6.7
2.9 2.5 2.6 2.9 3.0 3.6 4.1 4.7 5.0 5.2 6.0 7.3 7.6 8.3 7.6 5.4 5.8 6.2 8.9 9.2 9.5 9.4 9.4 9.2 8.6 8.2 7.8 7.5 7.4 7.6 8.4 8.9 8.5
3.7 2.8 3.1 3.3 3.1 3.6 4.1 5.2 6.7 7.8 8.2 7.9 8.3 8.5 7.1 5.4 4.2 5.7 7.7 8.6 9.0 9.2 8.9 9.1 8.8 7.1 7.2 7.4 7.4 7.6 7.8 8.5 8.5
4.3 3.8 4.7 4.8 5.0 4.7 4.8 5.8 7.0 8.2 8.2 8.1 7.8 8.0 7.3 5.3 4.4 4.9 6.4 7.8 8.7 8.5 8.5 8.9 8.0 7.1 7.1 7.3 7.4 7.6 7.6 7.6 7.7
5.0 5.3 4.7 5.0 5.4 4.9 4.3 5.0 6.7 7.2 7.5 7.4 6.9 6.6 7.0 5.5 4.6 4.8 5.4 6.3 7.0 8.7 8.4 8.5 8.6 7.4 7.2 7.2 7.2 7.1 7.2 7.1 6.9
4.2 3.9 4.5 4.0 5.0 5.0 4.5 4.4 5.3 6.4 7.2 6.5 6.8 6.3 6.6 6.5 4.8 5.0 5.1 5.1 5.5 6.1 7.0 9.0 8.6 7.6 7.1 6.9 6.8 6.8 7.2 7.4 7.3
4.2 2.9 2.9 3.9 4.8 5.2 5.4 5.0 5.4 5.0 6.9 5.8 7.0 6.9 6.7 6.4 6.2 4.7 4.3 4.4 4.8 5.1 5.5 6.0 6.3 8.1 7.9 8.0 7.7 7.5 7.5 7.7 8.0
3.9 2.6 2.4 4.5 4.4 4.7 3.3 2.8 2.9 4.3 4.6 5.1 5.3 6.2 7.0 6.5 6.1 6.0 6.0 4.9 4.1 4.6 4.7 5.0 5.5 6.2 8.3 8.4 8.3 8.2 8.1 8.6 8.6
4.3 2.8 3.1 4.3 3.6 3.2 3.6 2.2 2.9 3.9 4.5 5.5 4.9 5.0 5.2 6.5 6.5 5.1 5.6 5.9 5.2 4.4 4.2 4.4 4.8 5.4 6.1 7.6 9.2 9.2 8.6 9.2 9.1
4.4 3.6 3.6 3.7 1.9 2.0 2.3 2.8 2.4 3.2 4.4 6.9 5.2 4.4 4.9 5.9 5.7 5.6 6.0 5.9 5.8 5.5 3.9 4.1 4.4 4.8 5.2 5.8 6.8 8.6 9.0 8.9 8.8
4.2 3.3 3.5 3.5 2.2 2.4 2.6 2.3 2.7 3.0 4.3 4.1 4.2 4.5 5.2 4.9 5.4 6.7 5.4 5.5 5.9 6.1 6.3 4.5 4.1 4.2 4.2 4.7 5.2 6.0 6.6 7.1 7.2
4.1 3.2 2.7 3.1 2.1 2.7 2.7 2.7 1.5 2.2 2.9 4.2 3.8 4.5 5.0 4.7 5.7 5.2 5.2 4.7 5.5 5.5 5.8 6.2 4.8 3.7 3.8 3.7 3.9 4.6 5.6 6.3 6.8
4.4 4.1 3.5 2.9 2.4 1.9 2.3 2.2 2.2 1.5 2.3 2.7 3.5 3.9 4.0 3.8 4.9 5.5 5.0 4.5 3.9 4.6 5.5 6.0 5.2 4.0 3.3 3.1 3.2 3.9 4.8 5.7 6.4
4.4 4.3 4.0 3.2 2.3 1.8 2.0 2.7 2.1 1.7 1.5 1.9 3.3 2.3 2.7 4.2 5.2 5.0 5.3 4.6 5.0 4.0 5.2 5.7 5.6 4.7 3.3 3.6 3.7 4.0 4.7 5.4 6.0
3.7 3.9 3.4 2.9 2.3 1.8 1.9 2.5 2.5 1.9 1.6 1.8 2.1 2.4 2.5 2.7 3.3 4.5 4.9 4.8 4.8 4.7 5.4 5.7 6.4 5.9 4.3 4.3 4.3 4.2 4.8 5.2 5.5
Wind_Speed
14 14 14 14 14 14 14 14 14 15 14 14 13 12 12 14 19 22 20 15 14 13 13 13 13 14 14 14 14 14 14 14 13
14 13 14 14 13 14 13 14 14 14 14 14 12 13 14 18 18 20 16 13 14 14 14 14 14 15 14 15 15 15 15 16 14
13 13 13 13 13 13 13 13 13 14 14 12 11 12 17 15 19 18 15 14 15 15 14 15 15 15 14 14 15 15 16 16 16
13 13 12 12 12 12 12 12 12 12 12 10 9 12 11 19 19 13 12 14 16 15 15 16 14 14 14 13 14 14 15 15 16
13 12 12 12 12 11 11 11 10 10 10 8 8 8 11 22 18 14 10 15 16 16 16 17 16 15 15 15 14 12 13 13 15
13 12 11 11 10 10 9 7 7 8 10 6 5 6 17 19 16 13 13 16 16 15 15 15 12 14 15 15 16 16 13 12 13
12 9 9 9 9 9 6 3 2 6 2 2 3 14 22 18 15 18 17 15 14 15 14 14 17 16 15 15 15 14 13 14 12
12 10 8 7 7 4 4 4 6 7 8 10 13 14 18 17 15 18 20 17 16 16 17 14 16 15 12 16 15 15 15 15 15
10 8 7 4 9 6 8 8 5 8 13 14 15 15 17 16 17 17 20 20 17 15 16 14 18 18 18 18 18 20 19 19 17
9 6 6 7 7 7 5 8 5 7 11 14 15 13 16 19 17 17 17 17 17 15 14 14 17 20 16 17 17 16 16 17 17
8 7 5 6 8 6 8 7 5 4 9 8 13 12 14 16 17 16 16 16 15 14 14 14 14 18 20 22 23 23 23 23 23
9 8 5 5 8 8 7 5 8 6 7 5 10 11 12 14 15 14 14 15 16 14 14 14 14 14 18 20 21 21 21 20 21
7 6 6 7 6 4 4 3 3 3 5 4 4 6 10 13 16 16 13 10 12 14 13 14 16 16 15 15 17 18 18 19 16
9 7 8 9 5 5 2 3 3 3 4 5 5 5 4 7 11 14 11 9 11 12 13 15 16 16 16 15 15 15 15 15 16
9 10 8 10 5 3 3 2 3 3 3 5 5 4 4 6 5 8 10 10 10 10 12 13 17 17 17 17 16 16 16 16 16
9 8 7 9 5 5 5 3 5 3 2 4 3 2 3 3 1 6 9 8 9 9 10 12 16 17 17 17 16 16 16 16 16
9 8 4 5 4 5 4 4 3 2 2 3 3 2 2 2 2 3 3 5 8 9 9 9 16 18 17 17 16 16 16 16 16
11 9 7 5 4 3 3 4 5 3 1 3 3 2 3 3 0 2 2 4 3 6 10 8 16 19 17 16 15 15 16 16 16
11 11 9 6 6 5 3 3 3 4 3 2 2 3 3 3 2 1 2 4 4 4 6 8 12 15 15 14 14 13 15 16 17
12 12 11 6 6 5 4 3 3 3 3 2 2 3 3 3 3 2 1 3 2 4 6 9 10 13 13 13 13 12 14 16 17
Wind_Direction
94 90 83 78 75 70 69 68 67 67 64 60 55 40 24 80 63 59 50 40 47 49 54 56 58 57 56 50 45 41 36 32 30
92 86 81 78 73 71 67 64 63 61 59 56 50 32 37 66 69 67 50 48 53 56 56 57 58 57 53 50 47 43 41 39 43
95 89 81 76 71 69 68 65 61 61 58 56 52 44 52 57 74 69 50 54 58 59 60 60 57 52 50 51 47 45 43 40 47
95 89 84 79 74 71 69 68 67 67 65 64 55 51 53 71 57 48 36 64 63 64 65 57 58 56 51 52 50 47 46 45 41
105 89 85 83 81 76 73 75 77 79 73 69 51 31 51 73 52 42 50 73 71 65 60 49 44 49 44 36 31 45 35 39 46
91 93 93 89 84 84 82 93 103 103 90 79 57 17 75 73 51 15 59 61 62 58 53 43 52 56 55 50 40 44 51 45 44
113 110 111 108 107 98 96 93 172 192 163 50 57 89 82 74 50 29 47 62 69 62 56 49 50 48 48 51 43 42 46 58 50
139 146 147 141 154 155 143 52 23 66 91 85 73 74 94 87 65 39 39 59 61 59 52 62 46 34 56 55 49 55 46 65 55
166 136 140 132 125 92 90 95 84 51 70 74 73 73 92 96 77 59 50 47 56 60 50 52 45 56 65 66 58 58 59 56 55
111 133 111 102 84 107 84 106 79 87 84 77 70 67 82 103 97 77 67 58 55 53 56 47 42 48 65 68 64 61 61 59 58
120 110 105 81 93 74 91 97 102 87 97 100 105 90 82 97 117 97 82 73 64 57 54 53 41 40 58 67 68 67 65 55 48
141 125 111 112 102 107 108 89 88 82 91 76 78 102 104 92 93 115 98 88 81 70 63 59 49 40 45 59 58 54 53 53 46
131 122 123 128 121 122 102 105 104 116 108 98 80 67 85 102 95 86 74 89 94 83 79 69 60 53 47 46 52 54 49 47 43
144 131 131 133 113 105 96 59 120 94 97 106 89 77 65 83 97 104 96 90 97 107 99 91 76 65 61 61 60 59 55 49 44
148 136 153 131 116 110 105 93 76 124 143 113 97 86 56 67 88 119 97 88 82 97 132 100 91 77 69 62 58 54 50 44 38
143 144 156 154 150 164 149 134 102 47 88 93 78 85 118 86 106 92 98 106 94 76 74 126 111 90 72 66 59 52 46 40 34
156 152 165 151 122 124 129 133 104 78 63 162 145 136 1 28 81 69 95 115 96 89 82 74 113 102 85 65 52 43 36 29 25
159 162 161 145 129 141 151 149 141 139 14 83 149 118 168 136 305 143 82 106 85 106 109 91 104 103 90 68 47 35 26 20 15
162 160 157 147 133 121 138 139 130 121 149 55 56 76 139 149 127 345 147 117 100 93 119 117 113 118 104 72 46 30 20 15 11
159 155 149 148 133 135 130 115 103 117 140 134 133 62 40 65 126 160 234 39 106 116 120 122 111 120 102 63 33 27 21 13 7